QPF
0.00 0.00 0.00 0.00 0.00 0.00 0.00 0.00 0.00 0.00 0.00 0.00 0.00 0.00 0.00 0.00 0.00 0.00 0.00 0.00 0.00 0.00 0.00 0.00 0.00 0.00 0.00 0.00 0.00 0.00 0.00 0.00 0.00 0.00 0.00 0.00 0.00 0.00 0.00 0.00 0.00 0.00 0.00 0.00 0.00 0.00 0.00 0.00 0.00
0.00 0.00 0.00 0.00 0.00 0.00 0.00 0.00 0.00 0.00 0.00 0.00 0.00 0.00 0.00 0.00 0.00 0.00 0.00 0.00 0.00 0.00 0.00 0.00 0.00 0.00 0.00 0.00 0.00 0.00 0.00 0.00 0.00 0.00 0.00 0.00 0.00 0.00 0.00 0.00 0.00 0.00 0.00 0.01 0.01 0.01 0.01 0.00 0.00
0.00 0.00 0.00 0.00 0.00 0.00 0.00 0.00 0.00 0.00 0.00 0.00 0.00 0.00 0.00 0.00 0.00 0.00 0.00 0.00 0.00 0.00 0.00 0.00 0.00 0.00 0.00 0.00 0.00 0.00 0.00 0.00 0.00 0.00 0.00 0.00 0.00 0.00 0.00 0.00 0.00 0.01 0.01 0.02 0.01 0.01 0.01 0.01 0.00
0.00 0.00 0.00 0.00 0.00 0.00 0.00 0.00 0.00 0.00 0.00 0.00 0.00 0.00 0.00 0.00 0.00 0.00 0.00 0.00 0.00 0.00 0.00 0.00 0.00 0.00 0.00 0.00 0.00 0.00 0.00 0.00 0.00 0.00 0.00 0.00 0.00 0.01 0.01 0.01 0.01 0.01 0.02 0.02 0.01 0.01 0.01 0.01 0.00
0.00 0.00 0.00 0.00 0.00 0.00 0.00 0.00 0.00 0.00 0.00 0.00 0.00 0.00 0.00 0.00 0.00 0.00 0.00 0.00 0.00 0.00 0.00 0.00 0.00 0.00 0.00 0.00 0.00 0.00 0.00 0.00 0.00 0.00 0.00 0.00 0.00 0.01 0.01 0.01 0.01 0.01 0.01 0.00 0.00 0.00 0.00 0.00 0.00
0.00 0.00 0.00 0.00 0.00 0.00 0.00 0.00 0.00 0.00 0.00 0.00 0.00 0.00 0.00 0.00 0.00 0.00 0.00 0.00 0.00 0.00 0.00 0.00 0.01 0.01 0.00 0.00 0.00 0.00 0.00 0.00 0.00 0.00 0.00 0.00 0.00 0.00 0.00 0.00 0.00 0.00 0.00 0.00 0.00 0.00 0.00 0.00 0.00
0.00 0.00 0.00 0.00 0.00 0.00 0.00 0.00 0.00 0.00 0.00 0.00 0.00 0.00 0.00 0.00 0.00 0.00 0.00 0.00 0.00 0.00 0.00 0.01 0.01 0.01 0.01 0.01 0.00 0.00 0.00 0.00 0.00 0.00 0.00 0.00 0.00 0.00 0.00 0.00 0.00 0.00 0.00 0.00 0.00 0.00 0.00 0.00 0.00
0.00 0.00 0.00 0.00 0.00 0.00 0.00 0.00 0.00 0.00 0.00 0.00 0.00 0.00 0.00 0.00 0.00 0.00 0.00 0.00 0.00 0.00 0.00 0.01 0.02 0.03 0.04 0.03 0.02 0.01 0.01 0.01 0.00 0.00 0.00 0.00 0.00 0.00 0.00 0.00 0.00 0.00 0.00 0.00 0.00 0.00 0.00 0.00 0.01
0.00 0.00 0.00 0.00 0.00 0.00 0.00 0.00 0.00 0.00 0.00 0.00 0.00 0.00 0.00 0.00 0.00 0.00 0.00 0.00 0.00 0.01 0.01 0.02 0.03 0.04 0.06 0.06 0.05 0.04 0.04 0.04 0.02 0.01 0.01 0.00 0.00 0.00 0.00 0.00 0.00 0.00 0.00 0.00 0.00 0.01 0.01 0.01 0.01
0.00 0.00 0.00 0.00 0.00 0.00 0.00 0.00 0.00 0.00 0.00 0.00 0.00 0.00 0.00 0.00 0.00 0.00 0.00 0.00 0.00 0.01 0.01 0.02 0.02 0.03 0.05 0.05 0.06 0.08 0.08 0.09 0.08 0.06 0.05 0.04 0.03 0.01 0.01 0.01 0.00 0.00 0.01 0.01 0.01 0.03 0.03 0.02 0.02
0.00 0.00 0.00 0.00 0.00 0.00 0.00 0.00 0.00 0.00 0.00 0.00 0.00 0.00 0.00 0.00 0.00 0.00 0.00 0.00 0.00 0.01 0.01 0.01 0.01 0.02 0.04 0.06 0.06 0.07 0.08 0.09 0.10 0.11 0.11 0.11 0.09 0.06 0.04 0.04 0.02 0.01 0.02 0.02 0.04 0.06 0.04 0.04 0.05
0.00 0.00 0.00 0.00 0.00 0.00 0.00 0.00 0.00 0.00 0.00 0.00 0.00 0.00 0.00 0.00 0.00 0.00 0.00 0.00 0.02 0.03 0.03 0.02 0.01 0.01 0.02 0.03 0.04 0.05 0.06 0.08 0.09 0.12 0.15 0.18 0.16 0.12 0.10 0.08 0.06 0.05 0.04 0.05 0.06 0.10 0.09 0.08 0.09
0.00 0.00 0.00 0.00 0.00 0.00 0.00 0.00 0.00 0.00 0.00 0.00 0.00 0.00 0.00 0.00 0.00 0.00 0.01 0.01 0.04 0.07 0.09 0.08 0.06 0.04 0.02 0.02 0.02 0.02 0.04 0.05 0.07 0.12 0.16 0.21 0.20 0.17 0.17 0.14 0.13 0.09 0.10 0.12 0.11 0.12 0.12 0.11 0.12
0.00 0.00 0.00 0.00 0.00 0.00 0.00 0.00 0.00 0.00 0.00 0.00 0.00 0.00 0.00 0.00 0.00 0.01 0.01 0.02 0.04 0.07 0.09 0.10 0.11 0.08 0.05 0.03 0.02 0.02 0.02 0.03 0.06 0.10 0.14 0.20 0.21 0.20 0.20 0.17 0.17 0.16 0.20 0.27 0.26 0.24 0.24 0.23 0.20
0.00 0.00 0.00 0.00 0.00 0.00 0.00 0.00 0.00 0.00 0.00 0.00 0.00 0.00 0.01 0.01 0.01 0.01 0.02 0.03 0.05 0.06 0.07 0.08 0.07 0.05 0.04 0.03 0.02 0.03 0.03 0.04 0.07 0.11 0.15 0.19 0.21 0.23 0.26 0.25 0.22 0.22 0.27 0.31 0.29 0.30 0.32 0.26 0.21
0.00 0.00 0.00 0.00 0.00 0.00 0.00 0.00 0.01 0.00 0.01 0.01 0.01 0.02 0.02 0.02 0.02 0.02 0.03 0.04 0.04 0.04 0.05 0.05 0.05 0.03 0.02 0.02 0.02 0.03 0.05 0.08 0.11 0.16 0.19 0.21 0.25 0.32 0.34 0.29 0.24 0.24 0.25 0.22 0.22 0.24 0.27 0.28 0.29
0.00 0.00 0.00 0.00 0.00 0.00 0.00 0.00 0.01 0.00 0.01 0.02 0.02 0.02 0.02 0.02 0.02 0.03 0.03 0.03 0.02 0.02 0.02 0.02 0.02 0.01 0.01 0.01 0.02 0.04 0.08 0.14 0.23 0.31 0.34 0.32 0.32 0.36 0.37 0.32 0.25 0.20 0.17 0.14 0.13 0.14 0.17 0.19 0.21
0.00 0.00 0.00 0.00 0.00 0.00 0.00 0.00 0.01 0.01 0.01 0.01 0.02 0.02 0.02 0.02 0.02 0.02 0.01 0.01 0.01 0.01 0.01 0.01 0.00 0.00 0.00 0.03 0.06 0.08 0.11 0.18 0.31 0.44 0.47 0.40 0.36 0.37 0.34 0.29 0.23 0.17 0.14 0.11 0.08 0.08 0.09 0.09 0.10
0.00 0.00 0.00 0.00 0.00 0.00 0.00 0.00 0.00 0.01 0.01 0.01 0.01 0.01 0.01 0.01 0.01 0.01 0.01 0.00 0.00 0.00 0.00 0.00 0.00 0.00 0.00 0.02 0.04 0.06 0.09 0.14 0.25 0.36 0.39 0.39 0.37 0.35 0.30 0.24 0.19 0.14 0.10 0.06 0.04 0.04 0.04 0.04 0.04
0.00 0.00 0.00 0.00 0.00 0.00 0.00 0.00 0.00 0.00 0.00 0.00 0.00 0.00 0.00 0.00 0.01 0.00 0.00 0.00 0.00 0.00 0.00 0.00 0.00 0.00 0.00 0.01 0.02 0.02 0.04 0.06 0.10 0.14 0.17 0.19 0.24 0.27 0.25 0.22 0.17 0.12 0.09 0.05 0.03 0.02 0.02 0.02 0.02
0.00 0.00 0.00 0.00 0.00 0.00 0.00 0.01 0.00 0.00 0.00 0.00 0.00 0.00 0.00 0.00 0.00 0.00 0.00 0.00 0.00 0.00 0.00 0.00 0.00 0.00 0.00 0.00 0.01 0.02 0.03 0.05 0.07 0.09 0.09 0.10 0.12 0.16 0.17 0.17 0.16 0.12 0.08 0.06 0.04 0.02 0.01 0.01 0.01
0.00 0.00 0.00 0.00 0.00 0.00 0.01 0.04 0.02 0.00 0.00 0.00 0.00 0.00 0.00 0.00 0.00 0.00 0.00 0.00 0.00 0.00 0.00 0.00 0.00 0.00 0.00 0.00 0.00 0.01 0.01 0.02 0.03 0.04 0.05 0.06 0.07 0.08 0.10 0.11 0.12 0.11 0.09 0.08 0.05 0.03 0.02 0.01 0.00
0.00 0.00 0.00 0.00 0.00 0.00 0.00 0.04 0.05 0.01 0.01 0.00 0.00 0.00 0.00 0.00 0.00 0.00 0.00 0.00 0.00 0.00 0.00 0.00 0.00 0.00 0.00 0.00 0.00 0.00 0.00 0.00 0.01 0.01 0.02 0.04 0.06 0.07 0.08 0.09 0.08 0.08 0.09 0.09 0.07 0.06 0.03 0.02 0.00
0.01 0.00 0.00 0.00 0.00 0.01 0.00 0.03 0.08 0.04 0.01 0.01 0.00 0.00 0.00 0.00 0.00 0.00 0.00 0.00 0.00 0.00 0.00 0.00 0.00 0.00 0.00 0.00 0.00 0.00 0.00 0.00 0.00 0.00 0.01 0.02 0.03 0.05 0.07 0.09 0.11 0.10 0.10 0.08 0.07 0.06 0.04 0.03 0.01
0.01 0.00 0.00 0.00 0.00 0.01 0.01 0.04 0.06 0.02 0.01 0.01 0.00 0.00 0.00 0.00 0.00 0.00 0.00 0.00 0.00 0.00 0.00 0.00 0.00 0.00 0.00 0.00 0.00 0.00 0.00 0.00 0.00 0.00 0.00 0.00 0.01 0.01 0.03 0.05 0.07 0.09 0.11 0.12 0.10 0.08 0.06 0.05 0.03
0.00 0.00 0.00 0.00 0.01 0.01 0.03 0.09 0.04 0.01 0.01 0.01 0.00 0.00 0.00 0.00 0.00 0.00 0.00 0.00 0.00 0.00 0.00 0.00 0.00 0.00 0.00 0.00 0.00 0.00 0.00 0.00 0.00 0.00 0.00 0.00 0.00 0.00 0.00 0.01 0.02 0.04 0.07 0.09 0.10 0.11 0.10 0.08 0.06
0.00 0.00 0.00 0.00 0.00 0.02 0.05 0.06 0.02 0.01 0.01 0.00 0.00 0.00 0.00 0.00 0.00 0.00 0.00 0.00 0.00 0.00 0.00 0.00 0.00 0.00 0.00 0.00 0.00 0.00 0.00 0.00 0.00 0.00 0.00 0.00 0.00 0.00 0.00 0.00 0.00 0.01 0.02 0.04 0.07 0.10 0.13 0.14 0.11
0.00 0.00 0.00 0.00 0.01 0.02 0.03 0.06 0.04 0.01 0.00 0.00 0.00 0.00 0.00 0.00 0.00 0.00 0.00 0.00 0.00 0.00 0.00 0.00 0.00 0.00 0.00 0.00 0.00 0.00 0.00 0.00 0.00 0.00 0.00 0.00 0.00 0.00 0.00 0.00 0.00 0.00 0.00 0.01 0.04 0.08 0.12 0.18 0.21
0.00 0.00 0.00 0.00 0.00 0.00 0.00 0.01 0.01 0.00 0.00 0.00 0.00 0.00 0.00 0.00 0.00 0.00 0.00 0.00 0.00 0.00 0.00 0.00 0.00 0.00 0.00 0.00 0.00 0.00 0.00 0.00 0.00 0.00 0.00 0.00 0.00 0.00 0.00 0.00 0.00 0.00 0.00 0.00 0.01 0.04 0.09 0.16 0.26
0.00 0.00 0.00 0.00 0.00 0.00 0.00 0.00 0.00 0.00 0.00 0.00 0.00 0.00 0.00 0.00 0.00 0.00 0.00 0.00 0.00 0.00 0.00 0.00 0.00 0.00 0.00 0.00 0.00 0.00 0.00 0.00 0.00 0.00 0.00 0.00 0.00 0.00 0.00 0.00 0.00 0.00 0.00 0.00 0.00 0.00 0.02 0.07 0.18
MSLP
1011.64 1012.15 1012.59 1012.86 1012.90 1012.66 1012.18 1011.53 1010.82 1010.17 1009.67 1009.35 1009.20 1009.17 1009.17 1009.14 1009.01 1008.80 1008.55 1008.35 1008.30 1008.46 1008.86 1009.48 1010.24 1011.04 1011.75 1012.30 1012.66 1012.83 1012.89 1012.90 1012.97 1013.14 1013.43 1013.81 1014.23 1014.62 1014.91 1015.09 1015.17 1015.18 1015.18 1015.21 1015.32 1015.51 1015.75 1016.00 1016.21
1011.76 1012.26 1012.66 1012.85 1012.79 1012.44 1011.85 1011.10 1010.31 1009.60 1009.04 1008.70 1008.54 1008.53 1008.57 1008.59 1008.55 1008.42 1008.27 1008.17 1008.21 1008.44 1008.91 1009.59 1010.40 1011.24 1012.01 1012.62 1013.03 1013.26 1013.36 1013.41 1013.48 1013.62 1013.86 1014.16 1014.49 1014.78 1015.00 1015.12 1015.16 1015.16 1015.18 1015.25 1015.41 1015.64 1015.92 1016.19 1016.40
1011.87 1012.33 1012.64 1012.73 1012.55 1012.10 1011.42 1010.60 1009.76 1009.02 1008.45 1008.11 1007.97 1007.99 1008.08 1008.17 1008.20 1008.17 1008.12 1008.11 1008.23 1008.54 1009.06 1009.77 1010.61 1011.48 1012.28 1012.93 1013.40 1013.69 1013.83 1013.91 1013.98 1014.10 1014.28 1014.50 1014.73 1014.92 1015.05 1015.11 1015.12 1015.12 1015.16 1015.28 1015.49 1015.77 1016.08 1016.36 1016.56
1011.96 1012.34 1012.54 1012.52 1012.22 1011.68 1010.93 1010.08 1009.24 1008.51 1007.97 1007.66 1007.56 1007.62 1007.76 1007.91 1008.01 1008.07 1008.11 1008.19 1008.38 1008.74 1009.29 1010.01 1010.85 1011.72 1012.53 1013.20 1013.69 1014.01 1014.20 1014.30 1014.38 1014.47 1014.59 1014.74 1014.88 1014.99 1015.05 1015.06 1015.05 1015.06 1015.14 1015.30 1015.55 1015.87 1016.20 1016.49 1016.67
1012.03 1012.30 1012.38 1012.23 1011.84 1011.23 1010.47 1009.63 1008.83 1008.16 1007.68 1007.42 1007.36 1007.46 1007.63 1007.83 1007.99 1008.11 1008.22 1008.37 1008.61 1009.00 1009.56 1010.27 1011.08 1011.91 1012.69 1013.33 1013.82 1014.15 1014.35 1014.47 1014.55 1014.63 1014.72 1014.82 1014.90 1014.96 1014.97 1014.96 1014.95 1014.98 1015.09 1015.29 1015.57 1015.92 1016.25 1016.53 1016.69
1012.06 1012.21 1012.17 1011.92 1011.46 1010.83 1010.09 1009.32 1008.60 1008.01 1007.61 1007.41 1007.39 1007.50 1007.70 1007.91 1008.10 1008.27 1008.42 1008.62 1008.90 1009.30 1009.85 1010.52 1011.27 1012.02 1012.72 1013.31 1013.75 1014.06 1014.25 1014.36 1014.44 1014.51 1014.59 1014.67 1014.74 1014.78 1014.79 1014.78 1014.79 1014.85 1014.98 1015.21 1015.52 1015.86 1016.19 1016.44 1016.58
1012.04 1012.07 1011.93 1011.60 1011.12 1010.52 1009.85 1009.18 1008.58 1008.10 1007.78 1007.63 1007.63 1007.75 1007.93 1008.13 1008.32 1008.50 1008.68 1008.90 1009.20 1009.60 1010.11 1010.72 1011.38 1012.03 1012.63 1013.12 1013.48 1013.73 1013.88 1013.98 1014.05 1014.12 1014.21 1014.29 1014.37 1014.43 1014.47 1014.50 1014.54 1014.64 1014.80 1015.04 1015.35 1015.68 1015.98 1016.20 1016.30
1011.95 1011.88 1011.66 1011.31 1010.85 1010.33 1009.77 1009.24 1008.77 1008.41 1008.17 1008.06 1008.06 1008.15 1008.29 1008.45 1008.62 1008.79 1008.97 1009.20 1009.50 1009.88 1010.35 1010.88 1011.44 1011.97 1012.44 1012.81 1013.07 1013.24 1013.33 1013.39 1013.44 1013.52 1013.61 1013.73 1013.84 1013.95 1014.03 1014.11 1014.20 1014.33 1014.52 1014.76 1015.05 1015.35 1015.62 1015.80 1015.87
1011.77 1011.63 1011.38 1011.05 1010.66 1010.26 1009.85 1009.48 1009.16 1008.92 1008.75 1008.66 1008.64 1008.68 1008.76 1008.87 1008.99 1009.13 1009.31 1009.53 1009.82 1010.18 1010.59 1011.04 1011.49 1011.90 1012.23 1012.46 1012.60 1012.67 1012.69 1012.69 1012.72 1012.79 1012.90 1013.04 1013.20 1013.35 1013.50 1013.63 1013.77 1013.94 1014.14 1014.38 1014.64 1014.90 1015.12 1015.26 1015.30
1011.50 1011.33 1011.09 1010.83 1010.56 1010.30 1010.08 1009.89 1009.72 1009.59 1009.49 1009.42 1009.37 1009.35 1009.35 1009.39 1009.45 1009.55 1009.71 1009.92 1010.19 1010.51 1010.87 1011.24 1011.58 1011.86 1012.05 1012.16 1012.17 1012.13 1012.07 1012.01 1012.00 1012.05 1012.16 1012.32 1012.51 1012.71 1012.90 1013.08 1013.27 1013.46 1013.67 1013.90 1014.14 1014.36 1014.54 1014.65 1014.66
1011.17 1011.01 1010.82 1010.66 1010.54 1010.47 1010.44 1010.44 1010.43 1010.41 1010.37 1010.30 1010.22 1010.14 1010.07 1010.03 1010.03 1010.09 1010.21 1010.39 1010.63 1010.91 1011.21 1011.50 1011.73 1011.90 1011.97 1011.95 1011.86 1011.71 1011.56 1011.43 1011.37 1011.38 1011.47 1011.63 1011.83 1012.05 1012.27 1012.49 1012.71 1012.92 1013.14 1013.36 1013.58 1013.78 1013.93 1014.01 1014.00
1010.83 1010.70 1010.61 1010.58 1010.63 1010.76 1010.93 1011.11 1011.26 1011.35 1011.36 1011.30 1011.19 1011.05 1010.91 1010.80 1010.74 1010.75 1010.83 1010.97 1011.17 1011.40 1011.63 1011.84 1011.98 1012.05 1012.01 1011.89 1011.70 1011.46 1011.22 1011.02 1010.89 1010.85 1010.89 1011.02 1011.20 1011.42 1011.66 1011.89 1012.12 1012.35 1012.57 1012.79 1013.01 1013.19 1013.33 1013.39 1013.39
1010.54 1010.48 1010.49 1010.61 1010.85 1011.17 1011.54 1011.89 1012.18 1012.36 1012.42 1012.37 1012.24 1012.05 1011.86 1011.69 1011.57 1011.53 1011.56 1011.65 1011.80 1011.96 1012.12 1012.25 1012.30 1012.28 1012.16 1011.95 1011.68 1011.37 1011.06 1010.78 1010.58 1010.47 1010.45 1010.52 1010.66 1010.85 1011.07 1011.30 1011.53 1011.76 1012.00 1012.23 1012.45 1012.63 1012.78 1012.85 1012.85
1010.37 1010.38 1010.51 1010.78 1011.18 1011.69 1012.22 1012.73 1013.14 1013.40 1013.51 1013.47 1013.32 1013.11 1012.87 1012.65 1012.48 1012.39 1012.36 1012.39 1012.46 1012.56 1012.64 1012.68 1012.66 1012.56 1012.37 1012.10 1011.77 1011.40 1011.03 1010.69 1010.41 1010.22 1010.13 1010.12 1010.20 1010.33 1010.51 1010.72 1010.95 1011.19 1011.43 1011.68 1011.92 1012.13 1012.29 1012.39 1012.42
1010.34 1010.43 1010.66 1011.07 1011.62 1012.27 1012.95 1013.57 1014.07 1014.40 1014.54 1014.52 1014.36 1014.13 1013.86 1013.60 1013.39 1013.24 1013.16 1013.12 1013.12 1013.12 1013.12 1013.08 1012.99 1012.83 1012.59 1012.28 1011.92 1011.51 1011.09 1010.69 1010.34 1010.07 1009.89 1009.81 1009.80 1009.87 1010.01 1010.19 1010.40 1010.64 1010.90 1011.16 1011.43 1011.67 1011.87 1012.00 1012.07
1010.46 1010.61 1010.93 1011.44 1012.11 1012.88 1013.65 1014.36 1014.92 1015.29 1015.45 1015.43 1015.27 1015.02 1014.73 1014.45 1014.21 1014.01 1013.87 1013.77 1013.69 1013.61 1013.53 1013.42 1013.26 1013.06 1012.78 1012.45 1012.06 1011.63 1011.18 1010.73 1010.33 1009.99 1009.72 1009.55 1009.47 1009.47 1009.55 1009.70 1009.89 1010.13 1010.39 1010.68 1010.97 1011.25 1011.49 1011.66 1011.76
1010.68 1010.87 1011.26 1011.85 1012.60 1013.43 1014.27 1015.02 1015.60 1015.98 1016.15 1016.13 1015.96 1015.71 1015.41 1015.12 1014.86 1014.63 1014.44 1014.28 1014.13 1013.99 1013.83 1013.66 1013.46 1013.21 1012.92 1012.58 1012.18 1011.74 1011.27 1010.79 1010.34 1009.94 1009.60 1009.36 1009.20 1009.14 1009.17 1009.28 1009.45 1009.68 1009.95 1010.25 1010.55 1010.85 1011.12 1011.34 1011.48
1010.92 1011.14 1011.58 1012.22 1013.01 1013.88 1014.74 1015.49 1016.07 1016.44 1016.60 1016.56 1016.39 1016.14 1015.85 1015.56 1015.29 1015.05 1014.83 1014.63 1014.44 1014.24 1014.03 1013.82 1013.58 1013.31 1013.01 1012.67 1012.27 1011.83 1011.35 1010.86 1010.37 1009.92 1009.53 1009.23 1009.02 1008.91 1008.89 1008.96 1009.11 1009.32 1009.58 1009.87 1010.18 1010.49 1010.77 1011.00 1011.17
1011.10 1011.36 1011.82 1012.49 1013.31 1014.18 1015.03 1015.76 1016.32 1016.65 1016.78 1016.73 1016.56 1016.31 1016.03 1015.75 1015.50 1015.26 1015.04 1014.83 1014.61 1014.38 1014.15 1013.90 1013.65 1013.37 1013.07 1012.74 1012.35 1011.92 1011.45 1010.95 1010.44 1009.96 1009.54 1009.19 1008.94 1008.79 1008.73 1008.78 1008.90 1009.08 1009.31 1009.58 1009.86 1010.15 1010.42 1010.66 1010.84
1011.19 1011.46 1011.96 1012.64 1013.47 1014.33 1015.15 1015.85 1016.35 1016.65 1016.74 1016.67 1016.49 1016.25 1016.00 1015.75 1015.53 1015.32 1015.12 1014.91 1014.69 1014.46 1014.21 1013.96 1013.70 1013.42 1013.13 1012.81 1012.44 1012.02 1011.56 1011.07 1010.56 1010.06 1009.62 1009.25 1008.97 1008.79 1008.71 1008.73 1008.82 1008.97 1009.16 1009.38 1009.62 1009.86 1010.09 1010.30 1010.47
1011.16 1011.46 1011.98 1012.69 1013.51 1014.36 1015.14 1015.79 1016.24 1016.49 1016.55 1016.46 1016.28 1016.06 1015.83 1015.62 1015.44 1015.27 1015.10 1014.92 1014.71 1014.49 1014.25 1013.99 1013.74 1013.47 1013.19 1012.89 1012.54 1012.15 1011.70 1011.22 1010.72 1010.23 1009.79 1009.41 1009.12 1008.93 1008.83 1008.82 1008.87 1008.98 1009.12 1009.28 1009.46 1009.63 1009.80 1009.96 1010.10
1011.05 1011.39 1011.94 1012.67 1013.49 1014.32 1015.07 1015.67 1016.07 1016.27 1016.30 1016.19 1016.02 1015.81 1015.62 1015.45 1015.31 1015.18 1015.05 1014.89 1014.71 1014.50 1014.26 1014.02 1013.77 1013.52 1013.25 1012.97 1012.65 1012.28 1011.86 1011.40 1010.92 1010.45 1010.01 1009.64 1009.35 1009.15 1009.04 1009.00 1009.03 1009.09 1009.18 1009.28 1009.38 1009.48 1009.57 1009.66 1009.75
1010.95 1011.33 1011.92 1012.66 1013.48 1014.29 1015.00 1015.56 1015.91 1016.08 1016.07 1015.96 1015.78 1015.59 1015.43 1015.29 1015.19 1015.09 1014.99 1014.86 1014.69 1014.48 1014.26 1014.02 1013.77 1013.53 1013.28 1013.01 1012.72 1012.38 1011.99 1011.56 1011.11 1010.66 1010.24 1009.88 1009.59 1009.39 1009.27 1009.22 1009.22 1009.25 1009.29 1009.33 1009.36 1009.38 1009.40 1009.42 1009.44
1010.93 1011.35 1011.97 1012.72 1013.53 1014.32 1014.99 1015.51 1015.82 1015.95 1015.92 1015.80 1015.62 1015.45 1015.30 1015.19 1015.11 1015.03 1014.94 1014.81 1014.65 1014.44 1014.21 1013.96 1013.72 1013.48 1013.24 1012.99 1012.72 1012.41 1012.06 1011.66 1011.24 1010.82 1010.42 1010.07 1009.79 1009.59 1009.47 1009.40 1009.39 1009.39 1009.39 1009.38 1009.36 1009.32 1009.28 1009.23 1009.19
1011.06 1011.51 1012.14 1012.89 1013.68 1014.43 1015.07 1015.53 1015.81 1015.90 1015.85 1015.72 1015.54 1015.38 1015.24 1015.14 1015.06 1014.98 1014.89 1014.75 1014.57 1014.35 1014.10 1013.84 1013.59 1013.35 1013.12 1012.88 1012.63 1012.35 1012.03 1011.66 1011.27 1010.87 1010.49 1010.16 1009.88 1009.68 1009.55 1009.48 1009.45 1009.44 1009.42 1009.39 1009.34 1009.27 1009.18 1009.09 1009.00
1011.37 1011.83 1012.45 1013.18 1013.93 1014.63 1015.20 1015.61 1015.84 1015.90 1015.83 1015.69 1015.51 1015.35 1015.21 1015.10 1015.02 1014.93 1014.81 1014.65 1014.44 1014.20 1013.93 1013.65 1013.39 1013.14 1012.91 1012.69 1012.45 1012.19 1011.89 1011.56 1011.18 1010.80 1010.43 1010.10 1009.82 1009.62 1009.48 1009.40 1009.36 1009.35 1009.33 1009.30 1009.25 1009.17 1009.07 1008.95 1008.84
1011.83 1012.28 1012.87 1013.55 1014.23 1014.85 1015.36 1015.70 1015.88 1015.90 1015.81 1015.66 1015.48 1015.31 1015.17 1015.05 1014.95 1014.84 1014.69 1014.51 1014.27 1014.00 1013.71 1013.41 1013.14 1012.88 1012.65 1012.43 1012.21 1011.96 1011.67 1011.34 1010.98 1010.61 1010.24 1009.90 1009.61 1009.39 1009.24 1009.15 1009.11 1009.09 1009.09 1009.07 1009.03 1008.97 1008.89 1008.79 1008.68
1012.41 1012.82 1013.36 1013.95 1014.54 1015.07 1015.48 1015.75 1015.87 1015.85 1015.74 1015.58 1015.40 1015.23 1015.09 1014.96 1014.84 1014.71 1014.54 1014.33 1014.07 1013.78 1013.47 1013.17 1012.88 1012.62 1012.38 1012.16 1011.93 1011.68 1011.40 1011.07 1010.70 1010.32 1009.94 1009.58 1009.27 1009.03 1008.85 1008.74 1008.69 1008.67 1008.67 1008.67 1008.67 1008.64 1008.60 1008.54 1008.46
1013.02 1013.38 1013.83 1014.32 1014.80 1015.22 1015.53 1015.71 1015.77 1015.72 1015.60 1015.43 1015.25 1015.09 1014.94 1014.82 1014.69 1014.54 1014.36 1014.14 1013.87 1013.58 1013.26 1012.95 1012.66 1012.40 1012.15 1011.92 1011.68 1011.41 1011.11 1010.76 1010.38 1009.98 1009.57 1009.18 1008.84 1008.56 1008.35 1008.21 1008.13 1008.10 1008.10 1008.11 1008.13 1008.15 1008.15 1008.14 1008.13
1013.59 1013.89 1014.25 1014.63 1014.98 1015.28 1015.49 1015.59 1015.60 1015.51 1015.38 1015.21 1015.05 1014.90 1014.76 1014.64 1014.51 1014.37 1014.18 1013.96 1013.70 1013.41 1013.11 1012.81 1012.52 1012.24 1011.99 1011.73 1011.47 1011.17 1010.84 1010.46 1010.05 1009.61 1009.18 1008.76 1008.38 1008.06 1007.81 1007.62 1007.50 1007.43 1007.41 1007.41 1007.44 1007.48 1007.53 1007.59 1007.65
Thickness
5829 5832 5834 5827 5820 5827 5828 5836 5844 5846 5851 5860 5859 5855 5850 5845 5838 5832 5853 5862 5858 5851 5840 5827 5821 5816 5813 5810 5807 5804 5801 5799 5796 5793 5791 5788 5786 5783 5780 5777 5775 5772 5770 5768 5766 5764 5762 5759 5757
5834 5834 5829 5826 5826 5826 5825 5839 5842 5845 5854 5860 5860 5855 5851 5851 5854 5850 5852 5854 5852 5846 5836 5826 5817 5813 5809 5806 5804 5801 5798 5795 5792 5790 5788 5785 5783 5780 5778 5776 5773 5771 5769 5767 5765 5763 5761 5758 5756
5834 5833 5827 5830 5832 5823 5823 5841 5845 5854 5862 5859 5855 5857 5852 5847 5850 5850 5852 5851 5848 5842 5833 5822 5813 5809 5805 5802 5799 5797 5794 5791 5789 5786 5784 5782 5780 5778 5776 5774 5772 5770 5768 5767 5764 5762 5760 5757 5756
5830 5826 5828 5829 5830 5834 5835 5844 5850 5853 5861 5861 5857 5851 5852 5850 5851 5852 5849 5848 5844 5837 5831 5819 5811 5806 5802 5798 5795 5793 5791 5788 5786 5784 5781 5780 5778 5776 5774 5772 5770 5768 5767 5765 5763 5761 5759 5756 5754
5828 5827 5826 5830 5832 5837 5846 5850 5854 5850 5854 5857 5855 5847 5844 5848 5852 5850 5846 5844 5840 5835 5830 5818 5808 5803 5799 5796 5793 5790 5788 5786 5783 5781 5779 5777 5775 5773 5771 5770 5768 5766 5764 5763 5761 5759 5757 5755 5753
5823 5825 5819 5822 5827 5835 5847 5854 5855 5850 5852 5854 5852 5846 5840 5846 5846 5845 5843 5840 5839 5833 5828 5815 5805 5800 5796 5793 5790 5787 5785 5782 5780 5778 5776 5774 5772 5771 5769 5767 5765 5763 5761 5759 5758 5756 5755 5753 5751
5817 5818 5815 5818 5820 5826 5838 5853 5850 5848 5848 5850 5854 5844 5840 5843 5844 5844 5839 5836 5834 5830 5824 5813 5806 5799 5794 5790 5786 5784 5781 5779 5777 5775 5773 5771 5769 5767 5765 5763 5761 5759 5757 5755 5754 5753 5752 5751 5749
5825 5818 5815 5818 5814 5819 5838 5847 5849 5846 5843 5854 5854 5840 5835 5838 5842 5839 5833 5829 5825 5822 5818 5811 5807 5802 5796 5791 5785 5781 5778 5776 5774 5771 5769 5767 5765 5763 5761 5759 5757 5755 5754 5752 5751 5750 5749 5748 5747
5821 5808 5807 5813 5809 5817 5833 5833 5841 5852 5847 5845 5844 5841 5842 5841 5838 5831 5824 5818 5814 5812 5811 5809 5805 5799 5795 5792 5787 5780 5777 5774 5771 5769 5766 5763 5764 5763 5760 5758 5756 5752 5750 5749 5748 5747 5746 5746 5745
5813 5803 5809 5815 5816 5817 5822 5823 5828 5834 5829 5825 5826 5829 5833 5831 5828 5823 5818 5811 5807 5805 5805 5804 5802 5797 5794 5791 5787 5781 5778 5775 5771 5770 5767 5763 5762 5760 5759 5757 5752 5749 5747 5746 5746 5745 5744 5744 5748
5810 5804 5811 5815 5819 5819 5817 5817 5820 5818 5808 5805 5811 5816 5820 5820 5819 5818 5813 5810 5806 5803 5801 5800 5798 5794 5791 5788 5785 5780 5776 5774 5770 5767 5763 5760 5758 5755 5752 5751 5749 5746 5745 5746 5747 5745 5745 5747 5749
5805 5807 5809 5812 5818 5815 5812 5812 5806 5797 5791 5801 5810 5814 5812 5809 5809 5808 5805 5803 5801 5798 5795 5794 5789 5785 5782 5780 5779 5775 5771 5768 5766 5762 5757 5754 5751 5750 5748 5746 5747 5745 5745 5746 5747 5746 5747 5746 5746
5798 5802 5808 5812 5812 5809 5805 5799 5791 5782 5788 5793 5797 5798 5797 5797 5797 5797 5795 5792 5789 5786 5783 5781 5777 5773 5769 5767 5766 5765 5763 5761 5758 5754 5751 5747 5744 5743 5742 5741 5740 5740 5742 5743 5742 5743 5744 5744 5743
5800 5800 5802 5803 5801 5798 5792 5786 5779 5769 5777 5777 5778 5778 5778 5777 5777 5776 5776 5774 5773 5770 5768 5767 5765 5763 5760 5759 5757 5755 5754 5752 5750 5748 5745 5740 5737 5735 5734 5734 5735 5736 5736 5737 5738 5739 5739 5739 5740
5800 5794 5794 5792 5793 5792 5791 5766 5757 5761 5765 5761 5760 5759 5759 5759 5760 5759 5759 5759 5758 5757 5757 5755 5755 5753 5751 5750 5749 5749 5746 5744 5743 5741 5737 5732 5729 5727 5727 5728 5730 5732 5731 5731 5731 5733 5734 5735 5737
5797 5793 5783 5779 5786 5785 5782 5747 5746 5755 5754 5750 5750 5749 5748 5747 5749 5750 5751 5750 5750 5748 5747 5746 5747 5744 5742 5741 5739 5740 5740 5738 5736 5733 5730 5725 5722 5720 5719 5722 5724 5726 5726 5727 5728 5729 5729 5731 5732
5790 5784 5778 5772 5779 5780 5772 5740 5739 5748 5746 5741 5741 5741 5740 5740 5742 5743 5744 5743 5742 5740 5738 5736 5735 5734 5733 5733 5732 5733 5732 5730 5729 5725 5722 5718 5715 5713 5713 5715 5717 5720 5722 5724 5725 5728 5727 5727 5728
5775 5778 5773 5765 5767 5769 5754 5736 5737 5741 5739 5735 5734 5734 5734 5734 5734 5737 5737 5737 5735 5732 5730 5728 5727 5725 5725 5726 5725 5725 5724 5724 5722 5718 5715 5711 5708 5708 5708 5709 5710 5713 5716 5718 5720 5722 5722 5723 5725
5778 5774 5769 5759 5761 5755 5741 5732 5731 5734 5733 5729 5727 5727 5727 5727 5729 5730 5729 5728 5726 5723 5720 5718 5716 5715 5715 5715 5715 5715 5715 5715 5715 5712 5710 5706 5703 5703 5703 5704 5705 5706 5708 5711 5715 5717 5717 5717 5721
5774 5770 5764 5754 5754 5747 5735 5727 5729 5728 5725 5725 5723 5722 5721 5721 5720 5720 5719 5719 5717 5714 5712 5710 5709 5707 5705 5704 5704 5705 5705 5707 5707 5705 5703 5701 5700 5700 5700 5700 5699 5700 5701 5704 5707 5709 5710 5713 5715
5775 5772 5767 5753 5747 5747 5737 5724 5724 5725 5725 5721 5720 5718 5716 5714 5712 5711 5711 5710 5709 5707 5704 5703 5699 5697 5695 5694 5697 5697 5697 5699 5698 5696 5695 5695 5695 5696 5696 5696 5696 5695 5697 5698 5699 5701 5701 5704 5709
5768 5778 5772 5757 5745 5741 5741 5721 5722 5723 5719 5717 5715 5714 5711 5709 5708 5707 5706 5705 5703 5701 5700 5696 5692 5689 5687 5685 5685 5682 5682 5683 5684 5685 5686 5686 5687 5688 5690 5690 5691 5690 5691 5692 5693 5697 5697 5697 5700
5770 5776 5772 5763 5756 5747 5742 5732 5719 5722 5715 5714 5712 5710 5708 5706 5705 5702 5701 5699 5697 5696 5693 5689 5684 5680 5677 5675 5673 5671 5673 5673 5676 5676 5676 5676 5678 5678 5679 5681 5682 5683 5685 5686 5687 5690 5690 5693 5695
5775 5770 5766 5765 5762 5737 5740 5732 5710 5718 5715 5712 5709 5706 5703 5702 5700 5698 5696 5694 5691 5689 5685 5681 5676 5671 5668 5666 5664 5662 5660 5660 5660 5661 5663 5666 5669 5669 5669 5669 5670 5672 5675 5678 5680 5681 5683 5686 5689
5772 5759 5746 5738 5737 5733 5739 5728 5707 5715 5715 5711 5706 5703 5700 5698 5695 5691 5688 5685 5682 5679 5675 5671 5666 5661 5659 5656 5655 5653 5652 5651 5651 5652 5655 5654 5656 5659 5658 5658 5658 5660 5662 5665 5669 5671 5675 5678 5680
5763 5761 5740 5725 5729 5737 5732 5717 5705 5711 5710 5707 5704 5700 5695 5692 5690 5685 5680 5677 5674 5670 5666 5661 5656 5651 5648 5646 5645 5644 5643 5644 5646 5646 5644 5645 5646 5647 5647 5646 5646 5648 5650 5653 5656 5659 5663 5668 5672
5759 5756 5758 5744 5739 5727 5723 5709 5702 5703 5701 5699 5696 5692 5688 5685 5681 5678 5673 5669 5665 5660 5656 5650 5645 5641 5638 5637 5636 5635 5635 5634 5634 5633 5633 5636 5636 5636 5636 5634 5635 5636 5638 5640 5642 5646 5650 5654 5660
5759 5752 5748 5737 5715 5713 5721 5713 5700 5695 5694 5693 5689 5686 5683 5679 5675 5671 5666 5660 5656 5651 5646 5641 5636 5632 5630 5629 5628 5628 5626 5624 5623 5622 5622 5621 5621 5621 5620 5621 5621 5623 5625 5627 5628 5632 5635 5639 5645
5746 5742 5738 5735 5724 5707 5703 5708 5709 5698 5693 5689 5687 5683 5678 5673 5668 5663 5658 5653 5647 5643 5637 5633 5629 5625 5623 5621 5619 5616 5615 5613 5611 5609 5609 5608 5606 5605 5605 5605 5606 5608 5610 5612 5614 5618 5622 5625 5630
5742 5734 5732 5719 5709 5709 5703 5706 5708 5700 5694 5688 5683 5679 5673 5667 5661 5656 5651 5645 5639 5634 5629 5624 5621 5618 5615 5612 5609 5606 5603 5600 5598 5596 5593 5590 5588 5586 5586 5587 5588 5590 5594 5597 5600 5603 5608 5612 5617